VK5KX Weather Reports


time (UTC)temp
F
wind
direction
speed
knots
gust
knots
rain 1hr
in
rain 24hr
in
rain mn
in
humidity
%
barometer
mb
20260504210021 55 58 0.0 0.0 0.00 0.14 0.02 95 1022.1
20260504204534 55 58 0.0 0.0 0.00 0.14 0.02 94 1022.0
20260504203022 55 58 0.0 0.0 0.00 0.14 0.02 94 1021.9
20260504201517 55 58 0.0 0.9 0.00 0.17 0.02 94 1021.7
20260504200015 55 58 0.0 1.7 0.00 0.17 0.02 94 1021.7
20260504194514 55 58 0.0 0.9 0.00 0.17 0.02 94 1021.6
20260504193011 55 58 0.0 0.0 0.00 0.17 0.02 94 1021.4
20260504191510 55 58 0.0 0.0 0.00 0.20 0.02 93 1021.3
20260504190010 55 58 0.0 0.9 0.00 0.20 0.02 94 1021.2
20260504184509 56 60 0.0 0.0 0.01 0.20 0.02 94 1021.2
20260504183009 56 60 0.0 0.0 0.01 0.20 0.02 94 1021.1
20260504181513 56 60 0.0 0.0 0.02 0.20 0.02 94 1020.9
20260504180009 56 60 0.0 0.0 0.02 0.20 0.02 94 1021.0
20260504174507 56 60 0.0 0.0 0.01 0.19 0.01 94 1020.9
20260504173006 56 60 0.0 0.0 0.01 0.19 0.01 93 1021.0
20260504171507 56 60 0.0 0.0 0.00 0.24 0.00 94 1021.0
20260504160108 54 60 0.0 0.0 0.00 0.25 0.00 92 1021.0
20260504081510 63 200 0.9 3.5 0.00 0.28 0.27 72 1017.1
20260504044556 67 160 2.6 7.8 0.00 0.28 0.27 65 1015.2
20260504043050 67 125 2.6 12.2 0.00 0.28 0.27 65 1015.0
20260504041546 66 136 3.5 7.8 0.00 0.28 0.27 65 1014.9
20260504040100 66 119 3.5 10.4 0.00 0.28 0.27 67 1015.0
20260504034608 67 188 2.6 7.8 0.00 0.28 0.27 67 1015.0
20260504033040 66 75 2.6 7.0 0.00 0.28 0.27 67 1015.0
20260504031539 66 184 4.3 7.8 0.00 0.28 0.27 69 1015.0
20260504030037 65 204 2.6 7.8 0.00 0.28 0.27 71 1015.1
20260504024534 65 158 2.6 8.7 0.00 0.28 0.27 72 1015.2
20260504023032 64 184 1.7 6.1 0.01 0.28 0.27 76 1015.3
20260504021528 63 167 4.3 11.3 0.01 0.28 0.27 77 1015.4
20260504020027 63 121 1.7 6.1 0.01 0.28 0.27 81 1015.3
20260504014525 63 171 2.6 10.4 0.05 0.28 0.27 83 1015.2
20260504013030 62 115 1.7 7.0 0.04 0.28 0.26 86 1015.0
20260504011523 61 223 4.3 8.7 0.05 0.28 0.26 88 1015.1
20260504010022 62 215 1.7 11.3 0.06 0.28 0.26 86 1015.0
20260504004520 62 150 2.6 8.7 0.02 0.24 0.22 87 1014.9
20260504003017 61 198 2.6 7.8 0.02 0.24 0.22 87 1014.7
20260504001515 62 206 3.5 8.7 0.00 0.23 0.20 89 1014.6
20260504000012 61 160 1.7 6.1 0.00 0.23 0.20 91 1014.5
20260503234509 60 191 0.9 7.0 0.00 0.23 0.20 92 1014.4
20260503233005 59 122 0.0 6.1 0.00 0.23 0.20 93 1014.2
20260503231505 59 216 0.9 3.5 0.02 0.23 0.20 93 1014.1
20260503230000 59 226 0.9 2.6 0.06 0.23 0.20 93 1013.8
20260503224559 58 237 0.0 1.7 0.06 0.23 0.20 93 1013.6
20260503223058 58 249 0.0 6.1 0.06 0.23 0.20 92 1013.4
20260503221557 59 221 0.0 3.5 0.05 0.21 0.19 92 1013.4
20260503220055 59 232 2.6 7.0 0.01 0.17 0.15 92 1013.0
20260503214601 59 228 0.9 3.5 0.01 0.17 0.15 91 1012.7
20260503213052 58 249 0.9 3.5 0.01 0.17 0.15 91 1012.6
20260503211554 58 209 0.0 3.5 0.00 0.17 0.14 91 1012.6